Location: Hains Lake
(37.8540°N, 99.8578°W)
Time: 07:25:25
(UTC+00:00)

Vanguard 1 - Pass Details

Date: 22 April 2021
Orbit: 649 x 3834 km, 34.2° (Epoch: 04 May)

Event Time Altitude Azimuth Distance (km) Brightness Sun altitude
Rises 02:00:18 0° 285° (WNW) 7,365 16.8 -8.1°
Reaches altitude 10° 02:05:08 10° 281° (W) 6,598 15.8 -9.0°
Maximum altitude 02:26:27 50° 215° (SW) 4,420 13.4 -12.8°
Enters shadow 02:45:01 11° 148° (SSE) 5,832 13.5 -16.0°
